[[{"header":{"parameterUnit":"m.s-1","parameterCategory":1,"la1":30.2991,"la2":30.254,"lo1":-89.0895,"lo2":-89.0444,"dy":0.0017,"dx":0.0017,"nx":28,"ny":28,"refTime":"2025-04-08T09:00:00:Z","depth":0,"parameterNumber":2,"parameterNumberName":"U-component_of_WINDS"},"data":[0,0,0,0,0,0,0,0,0,0,0,0,0,0,0,0,0,0,0,0,0,0,0,0,0,0,0,0,0,0,0,0,0,0,0,0,0,0,0,0,0,0,0,0,0,0,0,0,0,0,0,0,0,0,0,0,0,0,1.3674,1.3672,0,1.3571,1.357,1.3569,1.3496,1.3496,1.3495,1.3494,1.3388,1.3386,1.3384,0,0,0,0,0,0,0,0,0,0,0,0,0,1.3805,1.3803,1.3674,1.3672,1.3671,1.3572,1.357,1.3569,1.3496,1.3496,1.3495,1.3494,1.3389,1.3386,1.3383,0,0,0,0,0,0,0,0,0,0,0,0,0,1.373,1.3802,1.3674,1.3623,1.3617,1.3572,1.357,1.3568,1.3496,1.3496,1.3495,1.3494,1.339,1.3386,1.3383,1.3379,0,0,1.3373,1.3371,0,0,0,0,0,0,0,0,1.3734,1.3725,1.3632,1.3626,1.362,1.3546,1.3577,1.3505,1.3497,1.3542,1.3494,1.3493,1.3441,1.3433,1.3416,1.3374,1.337,1.3372,1.337,1.3369,1.3368,0,0,0,0,0,0,0,1.374,1.3729,1.3633,1.363,1.3623,1.3605,1.3593,1.3563,1.3498,1.3538,1.3533,1.3522,1.3438,1.342,1.3413,1.3368,1.3372,1.3369,1.3367,1.3366,1.3318,1.3319,0,0,0,0,0,0,1.3753,1.3734,1.3636,1.363,1.3676,1.3603,1.359,1.357,1.3498,1.3486,1.3523,1.3519,1.3426,1.3417,1.3409,1.3399,1.3369,1.3365,1.3364,1.3318,1.3319,1.3319,0,0,0,0,0,0,1.3756,1.3745,1.364,1.368,1.3666,1.3602,1.358,1.3569,1.3551,1.3486,1.3474,1.3516,1.3425,1.3414,1.3387,1.3395,1.3364,1.3361,1.3317,1.3318,1.3319,1.3381,0,0,0,0,0,0,1.376,1.3746,1.3745,1.3681,1.3664,1.3621,1.3581,1.3567,1.3545,1.3539,1.3477,1.3466,1.3423,1.3393,1.3384,1.339,1.3358,1.3316,1.3317,1.3319,1.3378,1.3384,1.339,0,0,0,0,0,1.3765,1.3766,1.3745,1.3733,1.366,1.3622,1.3612,1.3563,1.3546,1.3543,1.3502,1.3468,1.3396,1.3391,1.338,1.3385,1.3315,1.3317,1.3319,1.3375,1.3383,1.3389,0,0,0,0,0,0,1.3831,1.3756,1.3732,1.3713,1.3674,1.3609,1.3604,1.3573,1.3538,1.3534,1.3475,1.3462,1.3441,1.341,1.3406,1.3378,1.3351,1.3351,1.3398,1.3405,1.341,1.3418,1.3355,0,0,0,0,0,1.3844,1.3819,1.3755,1.3744,1.3726,1.3669,1.365,1.3616,1.3574,1.3557,1.3513,1.3473,1.3441,1.3422,1.3389,1.3374,1.3359,1.3372,1.3378,1.3383,1.3383,1.3372,1.3377,1.3325,1.3325,1.3325,0,0,1.3868,1.3825,1.3812,1.3756,1.3722,1.3697,1.3655,1.3631,1.3612,1.3553,1.3525,1.3492,1.3443,1.3423,1.3411,1.3396,1.3394,1.3385,1.339,1.3386,1.3374,1.3379,1.3384,1.3327,1.3326,1.3326,0,0,1.3901,1.3866,1.3853,1.382,1.377,1.3732,1.3729,1.3669,1.3645,1.3617,1.3572,1.3549,1.3495,1.3462,1.3438,1.346,1.3427,1.3451,1.3481,1.3471,1.3475,1.3478,1.3485,1.3488,1.3452,1.3452,1.3452,0,1.3938,1.3899,1.385,1.3828,1.3804,1.3751,1.3737,1.3707,1.3649,1.3633,1.3618,1.355,1.3513,1.3484,1.3489,1.3472,1.3466,1.3457,1.3479,1.3481,1.3484,1.349,1.3492,1.3455,1.3455,1.3454,1.3454,0,1.3947,1.3921,1.3917,1.3862,1.3838,1.382,1.3767,1.3749,1.3718,1.3682,1.3654,1.3608,1.3565,1.3556,1.3525,1.3522,1.3514,1.349,1.3462,1.3493,1.3497,1.3499,1.346,1.3459,1.3458,1.3457,0,0,1.4017,1.3936,1.3935,1.391,1.3851,1.383,1.381,1.3768,1.3753,1.3715,1.3696,1.3653,1.363,1.3603,1.3569,1.356,1.358,1.3536,1.3534,1.3545,1.3573,1.3591,1.3594,1.3558,1.3558,1.3559,1.3577,0,1.404,1.4001,1.3956,1.3933,1.3908,1.3858,1.384,1.3802,1.3769,1.3742,1.3705,1.3675,1.3647,1.363,1.362,1.358,1.3584,1.3578,1.3539,1.3538,1.3551,1.3597,1.3616,1.3635,1.3578,1.3578,1.3579,0,1.406,1.4026,1.4,1.3944,1.3932,1.3917,1.3875,1.3851,1.3807,1.3783,1.3754,1.3717,1.3693,1.367,1.3636,1.3632,1.3614,1.3592,1.3591,1.3584,1.3559,1.359,1.364,1.3642,1.3581,1.3581,1.3581,0,1.4113,1.4059,1.4037,1.4017,1.3951,1.3942,1.3914,1.3869,1.3847,1.3811,1.3797,1.3758,1.3737,1.3708,1.3662,1.3649,1.3632,1.3605,1.3611,1.3612,1.3608,1.3608,1.3654,1.3599,1.3599,1.3599,1.3599,0,1.4142,1.4128,1.406,1.4046,1.4029,1.3978,1.3962,1.393,1.389,1.3869,1.3824,1.3805,1.3745,1.3719,1.3683,1.3659,1.365,1.363,1.362,1.3633,1.3635,1.3619,1.3616,1.3599,1.3599,1.3599,1.3599,0,1.4196,1.415,1.4122,1.4063,1.4048,1.4038,1.3986,1.3971,1.3936,1.3909,1.39,1.3844,1.3811,1.3762,1.3714,1.369,1.3672,1.3657,1.3687,1.368,1.3688,1.3688,1.3724,1.3725,1.3671,1.3672,1.3672,0,1.4217,1.4205,1.4145,1.4128,1.4102,1.4075,1.4052,1.4002,1.3981,1.393,1.3921,1.3884,1.3852,1.3802,1.3756,1.3719,1.3702,1.3717,1.3696,1.371,1.3701,1.3702,1.37,1.3722,1.3723,1.3723,1.3724,0,1.4259,1.4237,1.4207,1.4169,1.4144,1.4112,1.4078,1.4066,1.4008,1.3987,1.3952,1.3928,1.3879,1.3844,1.3801,1.3771,1.3738,1.3731,1.373,1.3743,1.376,1.375,1.3699,1.373,1.373,1.3729,1.3729,1.3729,1.4296,1.4283,1.4239,1.4207,1.4176,1.4145,1.4128,1.4091,1.4062,1.4019,1.3991,1.3958,1.3915,1.3854,1.3826,1.3799,1.3785,1.3784,1.3784,1.3784,1.3788,1.3766,1.3792,1.3791,1.3791,1.3791,1.3791,0,1.4334,1.4304,1.4275,1.4229,1.4204,1.4176,1.4137,1.4118,1.409,1.4052,1.4022,1.3983,1.3948,1.3901,1.3863,1.385,1.3834,1.3842,1.3841,1.3835,1.3803,1.3807,1.3856,1.3856,1.3856,1.3856,1.3856,1.3856,1.4351,1.4328,1.4301,1.4262,1.4231,1.4199,1.4179,1.415,1.412,1.4079,1.405,1.402,1.3978,1.3937,1.3903,1.389,1.3878,1.389,1.3872,1.3843,1.3837,1.3832,1.3835,1.3888,1.3888,1.3905,1.3906,1.3906]},{"header":{"parameterUnit":"m.s-1","parameterCategory":1,"la1":30.2991,"la2":30.254,"lo1":-89.0895,"lo2":-89.0444,"dy":0.0017,"dx":0.0017,"nx":28,"ny":28,"refTime":"2025-04-08T09:00:00:Z","depth":0,"parameterNumber":3,"parameterNumberName":"V-component_of_WINDS"},"data":[0,0,0,0,0,0,0,0,0,0,0,0,0,0,0,0,0,0,0,0,0,0,0,0,0,0,0,0,0,0,0,0,0,0,0,0,0,0,0,0,0,0,0,0,0,0,0,0,0,0,0,0,0,0,0,0,0,0,-3.9279,-3.928,0,-3.9411,-3.9413,-3.9414,-3.9412,-3.941,-3.9408,-3.9406,-3.9539,-3.9544,-3.955,0,0,0,0,0,0,0,0,0,0,0,0,0,-3.9022,-3.9027,-3.9278,-3.928,-3.9282,-3.9411,-3.9413,-3.9415,-3.9412,-3.941,-3.9407,-3.9405,-3.9538,-3.9544,-3.955,0,0,0,0,0,0,0,0,0,0,0,0,0,-3.9142,-3.9028,-3.9278,-3.9296,-3.9299,-3.9411,-3.9413,-3.9415,-3.9412,-3.941,-3.9407,-3.9404,-3.9536,-3.9543,-3.9551,-3.9653,0,0,-3.9575,-3.9578,0,0,0,0,0,0,0,0,-3.9135,-3.9151,-3.9292,-3.9295,-3.9299,-3.9392,-3.9371,-3.9495,-3.9413,-3.9369,-3.9406,-3.9403,-3.9492,-3.9504,-3.9534,-3.9659,-3.9665,-3.9575,-3.958,-3.9584,-3.9586,0,0,0,0,0,0,0,-3.9127,-3.9146,-3.9331,-3.9294,-3.9298,-3.9297,-3.9311,-3.9395,-3.9444,-3.9373,-3.9373,-3.9389,-3.9494,-3.9527,-3.9537,-3.9666,-3.9575,-3.9582,-3.9587,-3.959,-3.9884,-3.9887,0,0,0,0,0,0,-3.9115,-3.9139,-3.9327,-3.9335,-3.9209,-3.9304,-3.932,-3.9365,-3.9443,-3.9453,-3.9391,-3.9388,-3.9515,-3.9528,-3.9542,-3.9669,-3.9583,-3.9591,-3.9595,-3.9881,-3.9885,-3.9889,0,0,0,0,0,0,-3.9109,-3.9132,-3.9321,-3.9237,-3.9261,-3.9311,-3.9362,-3.9369,-3.9402,-3.9457,-3.9466,-3.9416,-3.9513,-3.9531,-3.9626,-3.9673,-3.9594,-3.9601,-3.9878,-3.9883,-3.9887,-3.9922,0,0,0,0,0,0,-3.9102,-3.913,-3.9169,-3.9238,-3.9266,-3.9404,-3.9365,-3.9373,-3.9416,-3.9413,-3.9482,-3.9491,-3.9512,-3.9614,-3.9634,-3.9683,-3.9607,-3.9874,-3.988,-3.9885,-3.9916,-3.9927,-3.9936,0,0,0,0,0,-3.9093,-3.9172,-3.9171,-3.9194,-3.9316,-3.9406,-3.9422,-3.9445,-3.9419,-3.946,-3.9495,-3.9489,-3.9665,-3.9624,-3.9646,-3.9698,-3.9871,-3.9878,-3.9885,-3.9912,-3.9925,-3.9936,0,0,0,0,0,0,-3.9106,-3.9181,-3.9181,-3.9285,-3.9339,-3.9406,-3.9457,-3.9458,-3.952,-3.9515,-3.954,-3.9556,-3.9652,-3.9684,-3.9637,-3.9802,-3.9764,-3.9776,-3.9778,-3.979,-3.98,-3.9791,-3.9614,0,0,0,0,0,-3.9121,-3.9189,-3.9251,-3.9336,-3.9364,-3.9406,-3.9446,-3.946,-3.9517,-3.9539,-3.9582,-3.9637,-3.9705,-3.9749,-3.9814,-3.9921,-3.9937,-3.9967,-3.9977,-3.9984,-3.9995,-4.0056,-4.0071,-3.9912,-3.9912,-3.9912,0,0,-3.9152,-3.9202,-3.9243,-3.934,-3.9384,-3.9454,-3.9425,-3.9499,-3.9552,-3.955,-3.9644,-3.9677,-3.974,-3.9843,-3.9889,-3.9872,-4.0043,-3.9994,-3.9999,-4.0006,-4.0065,-4.008,-4.0094,-3.9917,-3.9916,-3.9915,0,0,-3.9246,-3.929,-3.9368,-3.9413,-3.9481,-3.9508,-3.9527,-3.9594,-3.9617,-3.9711,-3.9712,-3.9774,-3.989,-3.9936,-3.9975,-4.0089,-4.0086,-4.0109,-4.016,-4.022,-4.0232,-4.0244,-4.0287,-4.0302,-4.0119,-4.0119,-4.0119,0,-3.9277,-3.9383,-3.9407,-3.9484,-3.9527,-3.9531,-3.961,-3.9652,-3.9737,-3.9767,-3.9747,-3.9894,-3.9937,-4.0051,-4.0079,-4.011,-4.0133,-4.0102,-4.0229,-4.024,-4.0251,-4.0293,-4.0309,-4.0121,-4.0121,-4.0121,-4.0121,0,-3.9419,-3.9492,-3.9547,-3.9631,-3.968,-3.9758,-3.9794,-3.9841,-3.9851,-3.9881,-3.9978,-4.003,-4.0107,-4.0134,-4.0143,-4.0251,-4.0239,-4.0223,-4.0186,-4.0269,-4.0308,-4.0324,-4.0125,-4.0124,-4.0123,-4.0123,0,0,-3.9524,-3.9622,-3.9642,-3.9682,-3.9757,-3.9815,-3.9893,-3.997,-4.0011,-4.0069,-4.0136,-4.0236,-4.0223,-4.0266,-4.0281,-4.0333,-4.0424,-4.0312,-4.0313,-4.0333,-4.0548,-4.0561,-4.0579,-4.0422,-4.0425,-4.0427,-4.0544,0,-3.9627,-3.9767,-3.9792,-3.9914,-3.9984,-3.9989,-4.0058,-4.0112,-4.0142,-4.0205,-4.0238,-4.031,-4.0286,-4.0313,-4.0365,-4.0402,-4.0468,-4.0393,-4.0486,-4.0489,-4.0472,-4.0599,-4.0612,-4.072,-4.0559,-4.0562,-4.0564,0,-3.9767,-3.9832,-3.9961,-4.0031,-4.0061,-4.0122,-4.0196,-4.0256,-4.0318,-4.0336,-4.0387,-4.0396,-4.0478,-4.0437,-4.0551,-4.05,-4.0539,-4.0563,-4.0568,-4.0579,-4.0532,-4.0616,-4.0754,-4.0771,-4.0588,-4.0586,-4.0584,0,-3.9834,-3.9953,-4.0047,-4.008,-4.0163,-4.0206,-4.0242,-4.0301,-4.0347,-4.0411,-4.0442,-4.0514,-4.0554,-4.061,-4.0639,-4.0606,-4.0752,-4.0713,-4.0771,-4.0771,-4.0803,-4.0801,-4.0952,-4.0824,-4.0824,-4.0824,-4.0824,0,-3.9948,-4.0028,-4.0079,-4.0137,-4.0227,-4.0255,-4.0343,-4.0378,-4.0432,-4.0497,-4.0505,-4.0566,-4.0599,-4.0665,-4.0688,-4.0781,-4.0798,-4.0816,-4.0822,-4.0817,-4.0815,-4.0844,-4.0838,-4.0828,-4.0827,-4.0826,-4.0826,0,-4.0038,-4.0075,-4.0179,-4.0249,-4.0269,-4.0332,-4.0393,-4.045,-4.048,-4.0563,-4.0584,-4.0632,-4.0711,-4.0745,-4.0841,-4.0856,-4.0963,-4.0962,-4.0943,-4.0945,-4.1003,-4.0998,-4.118,-4.1206,-4.1059,-4.106,-4.1062,0,-4.011,-4.0172,-4.025,-4.0295,-4.0333,-4.0405,-4.0452,-4.0483,-4.0532,-4.0609,-4.0657,-4.0736,-4.0801,-4.0926,-4.097,-4.1044,-4.1046,-4.1104,-4.1057,-4.1051,-4.105,-4.1047,-4.1054,-4.1113,-4.1115,-4.1116,-4.1117,0,-4.0234,-4.025,-4.0318,-4.0394,-4.0451,-4.0512,-4.0571,-4.0608,-4.0647,-4.0702,-4.0784,-4.0834,-4.0934,-4.1013,-4.1091,-4.1127,-4.113,-4.1132,-4.115,-4.1146,-4.1134,-4.1144,-4.0969,-4.1127,-4.1126,-4.1126,-4.1125,-4.1125,-4.0318,-4.0375,-4.044,-4.0517,-4.0565,-4.0621,-4.0679,-4.0718,-4.0787,-4.0872,-4.0885,-4.0973,-4.1035,-4.1139,-4.118,-4.1249,-4.1234,-4.1259,-4.1266,-4.1273,-4.1278,-4.1121,-4.1262,-4.1262,-4.1262,-4.1262,-4.1262,0,-4.0445,-4.0488,-4.0558,-4.0643,-4.0703,-4.0701,-4.0767,-4.0819,-4.0896,-4.0954,-4.1019,-4.1114,-4.1191,-4.1242,-4.132,-4.1366,-4.1369,-4.1386,-4.1384,-4.1393,-4.1285,-4.1263,-4.1382,-4.1382,-4.1382,-4.1382,-4.1382,-4.1382,-4.0518,-4.0615,-4.0639,-4.076,-4.0802,-4.0889,-4.0927,-4.098,-4.1027,-4.1133,-4.1198,-4.1231,-4.1287,-4.137,-4.1441,-4.1454,-4.1484,-4.1502,-4.1514,-4.1412,-4.14,-4.1388,-4.1368,-4.1507,-4.1507,-4.1617,-4.1618,-4.1618]}]]